Flag for U.S.A. Weather past 2 weeks in Raleigh, North Carolina, U.S.A.

Now
85 °F

Scattered clouds.


Feels Like: 84 °F
Forecast: 71 / 89 °F
Wind: 8 mph from North

Location: Raleigh-Durham International Airport

Current Time: Jul 28, 2014 at 7:11:51 PM

Latest Report: Jul 28, 2014 at 5:51 PM


Visibility: 10 mi

Pressure: 29.78 "Hg

Humidity: 39%

Dew point: 57 °F

Location of RaleighLocation

Historic Weather in Raleigh — Graph

°F

Raleigh temperature yesterday

Maximum temperature yesterday: 86 °F (at 4:51 PM)
Minimum temperature yesterday: 72 °F (at 5:51 AM)
Average temperature yesterday: 78 °F

Past Weeks' High & Low Weather Summary

 TemperatureHumidityPressure
High97 °F (Jul 14, 2:51 PM)94% (Jul 21, 1:51 PM)30.19 "Hg (Jul 21, 1:51 PM)
Low61 °F (Jul 17, 5:51 AM)36% (Jul 18, 4:51 PM)29.73 "Hg (Jul 28, 4:51 AM)
Average77 °F72%29.99 "Hg
* Reported Jul 13 4:51 PM — Jul 28 4:51 PM, Raleigh, Weather by CustomWeather, © 2014

Note: Actual official high and low records may vary slightly from our data, if they occured in-between our weather recording intervals... More about our weather records

Advertising

Raleigh weather history for previous 24 hours

 ConditionsComfort  
Time TempWeatherWind HumidityBarometerVisibility
4:51 PM
Jul 28
86 °FBroken clouds.7 mph42%29.78 "Hg10 mi
3:51 PM84 °FPartly sunny.6 mph46%29.78 "Hg10 mi
2:51 PM85 °FScattered clouds.6 mph45%29.78 "Hg10 mi
1:51 PM83 °FScattered clouds.7 mph48%29.79 "Hg10 mi
12:51 PM84 °FScattered clouds.9 mph48%29.79 "Hg10 mi
11:51 AM85 °FScattered clouds.10 mph50%29.79 "Hg10 mi
10:51 AM82 °FScattered clouds.10 mph55%29.79 "Hg10 mi
9:51 AM80 °FScattered clouds.10 mph62%29.79 "Hg10 mi
8:51 AM77 °FScattered clouds.7 mph66%29.78 "Hg10 mi
7:51 AM75 °FScattered clouds.6 mph69%29.77 "Hg10 mi
6:51 AM74 °FPassing clouds.7 mph64%29.75 "Hg10 mi
5:51 AM76 °FPartly cloudy.8 mph58%29.73 "Hg10 mi
4:51 AM78 °FOvercast.9 mph54%29.73 "Hg10 mi
3:51 AM81 °FMostly cloudy.8 mph54%29.73 "Hg10 mi
2:51 AM82 °FOvercast.13 mph65%29.75 "Hg10 mi
1:51 AM78 °FOvercast.8 mph76%29.74 "Hg10 mi
12:51 AM80 °FOvercast.7 mph71%29.75 "Hg10 mi
11:51 PM
Jul 27
82 °FMostly cloudy.10 mph67%29.75 "Hg10 mi
10:51 PM82 °FMostly cloudy.13 mph67%29.75 "Hg10 mi
9:51 PM83 °FMostly cloudy.16 mph65%29.76 "Hg10 mi
8:51 PM82 °FMostly cloudy.10 mph67%29.77 "Hg10 mi
7:51 PM81 °FMore clouds than sun.6 mph69%29.80 "Hg10 mi
Weather by CustomWeather, © 2014

See weather overviewHow to use our weather pages